EST,Max TemperatureF,Mean TemperatureF,Min TemperatureF,Max Dew PointF,MeanDew PointF,Min DewpointF,Max Humidity, Mean Humidity, Min Humidity, Max Sea Level PressureIn, Mean Sea Level PressureIn, Min Sea Level PressureIn, Max VisibilityMiles, Mean VisibilityMiles, Min VisibilityMiles, Max Wind SpeedMPH, Mean Wind SpeedMPH, Max Gust SpeedMPH,PrecipitationIn, CloudCover, Events, WindDirDegrees
2012-11-1,46,42,38,33,30,25,76,63,49,29.86,29.81,29.76,10,10,10,21,11,26,0.00,6,,319
2012-11-2,47,42,36,32,30,27,76,65,53,30.16,30.03,29.87,10,10,10,22,10,30,T,5,,338
2012-11-3,45,39,32,31,29,27,82,68,53,30.25,30.21,30.18,10,10,10,12,5,14,0.00,7,,357
2012-11-4,46,40,33,30,26,25,76,63,49,30.25,30.23,30.19,10,10,10,14,6,17,0.00,5,,5
2012-11-5,42,34,26,26,24,23,85,68,50,30.27,30.23,30.17,10,10,10,14,4,17,0.00,5,,72
2012-11-6,45,38,31,31,28,25,78,66,53,30.17,30.03,29.95,10,10,9,16,7,20,0.00,8,,149
2012-11-7,50,40,30,31,29,26,85,64,42,30.18,30.09,29.97,10,10,5,14,6,16,T,4,Rain,87
2012-11-8,48,38,28,38,33,25,85,75,65,30.22,30.17,30.12,10,8,4,15,6,17,0.00,7,,183
2012-11-9,54,45,35,39,37,33,92,73,54,30.15,30.11,30.06,10,6,2,12,5,14,0.00,5,,141
2012-11-10,66,58,50,48,44,40,71,62,52,30.07,29.99,29.89,10,8,5,30,11,44,0.00,6,,133
2012-11-11,70,61,52,52,48,44,89,68,47,29.98,29.88,29.79,10,9,3,33,21,45,0.22,5,Rain,187
2012-11-12,52,41,30,50,30,17,96,74,51,30.27,30.04,29.84,10,8,1,28,15,35,0.23,8,Rain-Snow,259
2012-11-13,37,32,27,22,20,16,75,62,49,30.53,30.45,30.30,10,10,10,18,6,24,T,5,,255
2012-11-14,43,35,26,25,22,20,81,60,39,30.56,30.50,30.43,10,10,10,14,8,17,0.00,4,,141
2012-11-15,45,37,28,36,29,24,92,81,69,30.42,30.39,30.34,10,7,4,14,6,16,0.00,3,,154
2012-11-16,51,39,27,39,34,25,100,81,61,30.50,30.46,30.38,9,3,0,12,3,15,0.00,3,Fog,174
2012-11-17,52,41,29,39,31,26,100,72,44,30.59,30.54,30.50,10,4,0,14,3,16,0.00,0,Fog,162
2012-11-18,58,44,29,33,29,25,92,63,33,30.52,30.45,30.38,10,8,3,13,5,15,0.00,0,,133
2012-11-19,55,44,32,36,32,27,82,63,43,30.38,30.27,30.14,10,9,7,8,4,10,0.00,3,,133
2012-11-20,52,47,41,44,40,34,80,73,65,30.17,30.12,30.08,9,5,2,9,2,10,0.03,8,Rain,162
2012-11-21,52,45,37,45,42,36,96,87,77,30.24,30.18,30.09,5,1,0,18,7,29,T,5,Fog,191
2012-11-22,63,56,49,48,45,38,86,63,39,30.07,29.92,29.70,10,6,2,30,19,45,0.02,3,Rain,191
2012-11-23,53,42,31,47,28,20,78,65,52,30.12,29.87,29.69,10,8,0,29,22,40,0.03,8,Snow,285
2012-11-24,35,33,30,25,21,19,72,66,59,30.20,30.11,29.97,10,10,6,21,10,28,0.02,8,Snow,300
2012-11-25,40,36,32,29,26,23,75,67,59,30.04,29.90,29.82,10,9,2,22,11,28,0.01,8,Snow,266
2012-11-26,35,32,29,23,19,15,61,56,51,30.36,30.21,30.05,10,10,9,18,9,22,T,8,Snow,333
2012-11-27,37,32,26,21,18,16,63,58,52,30.38,30.32,30.21,10,10,10,20,7,28,0.00,5,,225
2012-11-28,42,37,32,28,24,20,82,67,51,30.33,30.27,30.19,10,9,1,21,11,29,0.01,5,Snow,282
2012-11-29,48,42,35,36,32,26,82,68,53,30.26,30.20,30.15,10,10,8,20,11,28,0.00,1,,205
2012-11-30,42,40,37,34,31,29,79,72,64,30.25,30.18,30.14,10,7,4,20,12,25,0.00,7,,84